User: anonymous   Login
Location: Unspecified
(0.0000°N, 0.0000°E)
Time: 11:51:38
(UTC+00:00)
Language:

VZLUSAT 1 - Orbit

View from above orbital plane
View from above orbital plane
View from above satellite
View from above satellite

Ground track
Ground track

The orbit data is extracted from the following two-line orbital elements,

1 42790U 17036AB  18347.83720457 +.00001466 +00000-0 +65548-4 0  9997
2 42790 097.3800 044.8888 0011892 158.6766 201.4969 15.22840842081850
Epoch (UTC): 13 December 2018 20:05:34
Eccentricity: 0.0011892
inclination: 97.3800°
perigee height: 489 km
apogee height: 505 km
right ascension of ascending node: 44.8888°
argument of perigee: 158.6766°
revolutions per day: 15.22840842
mean anomaly at epoch: 201.4969°
orbit number at epoch: 8185

The dashed part of the orbit path shows where the satellite is in the earth's shadow,  

DLR